Tinker AFB, OK

11:50 PM CDT on April 30, 2017 (GMT -0500)
Tinker Air Force Base

Weather History for KTIK - November, 2013

Change the Weather History Date:

Tuesday, November 5, 2013

  Actual Average Record
Temperature  
Mean Temperature 56 °F -  
Max Temperature 64 °F 59 °F 78 °F (2008)
Min Temperature 46 °F 42 °F 32 °F (2010)
Degree Days  
Heating Degree Days 9    
Growing Degree Days 6 (Base 50)    
Moisture  
Dew Point 59 °F    
Average Humidity 98    
Maximum Humidity 100    
Minimum Humidity 88    
Precipitation  
Precipitation 1.03 in - - ()
Sea Level Pressure  
Sea Level Pressure 29.97 in    
Wind  
Wind Speed 14 mph (South)    
Max Wind Speed 26 mph    
Max Gust Speed 34 mph    
Visibility 7 miles    
Events Rain    
Averages and records for this station are not official NWS values.
T = Trace of Precipitation, MM = Missing Value Source: NWS Daily Summary

Daily Weather History Graph

Daily Weather History Graph

Search for Another Location

Airport or City:

Trip Planner

Search our weather history database for the weather conditions in past years. The results will help you decide how hot, cold, wet, or windy it might be!

Date:

Astronomy

Nov. 05, 2013 Rise Set
Actual Time 6:55 AM CST 5:30 PM CST
Civil Twilight 6:28 AM CST 5:57 PM CST
Nautical Twilight 5:58 AM CST 6:27 PM CST
Astronomical Twilight 5:28 AM CST 6:57 PM CST
Moon 9:08 AM CST (11/5) 7:36 PM CST (11/5)
Length of Visible Light 11h 28m
Length of Day
10h 35m
Waxing Crescent, 7% of the Moon is Illuminated
Nov 5
Waxing Crescent
Nov 9
First Quarter
Nov 17
Full
Nov 25
Last Quarter
Dec 2
New

Hourly Weather History & Observations

Time (CST) Temp. Dew Point Humidity Pressure Visibility Wind Dir Wind Speed Gust Speed Precip Events Conditions
12:22 AM 59.0 °F 55.4 °F 88% 30.04 in 10.0 mi SSE 11.5 mph - N/A   Overcast
12:58 AM 58.5 °F 56.5 °F 93% 30.04 in 10.0 mi SSE 11.5 mph - N/A   Overcast
1:07 AM 59.0 °F 57.2 °F 94% 30.03 in 10.0 mi SSE 12.7 mph - N/A   Overcast
1:58 AM 58.6 °F 56.8 °F 94% 30.03 in 10.0 mi SSE 11.5 mph 17.3 mph N/A   Overcast
2:06 AM 59.0 °F 57.2 °F 94% 30.03 in 10.0 mi SSE 11.5 mph - N/A   Overcast
2:13 AM 59.0 °F 57.2 °F 94% 30.02 in 10.0 mi SSE 11.5 mph - N/A   Overcast
2:50 AM 57.2 °F 57.2 °F 100% 30.01 in 10.0 mi SSE 12.7 mph 19.6 mph N/A   Overcast
2:51 AM 57.2 °F 57.2 °F 100% 30.01 in 10.0 mi SSE 10.4 mph 19.6 mph N/A   Overcast
2:58 AM 57.9 °F 57.0 °F 97% 30.03 in 10.0 mi SSE 10.4 mph 19.6 mph N/A   Overcast
3:03 AM 57.2 °F 57.2 °F 100% 30.01 in 10.0 mi SSE 12.7 mph - N/A   Overcast
3:52 AM 59.0 °F 57.2 °F 94% 30.00 in 10.0 mi SSE 13.8 mph 20.7 mph N/A   Overcast
3:58 AM 58.1 °F 56.7 °F 95% 30.01 in 10.0 mi SSE 12.7 mph 23.0 mph N/A   Overcast
4:37 AM 59.0 °F 57.2 °F 94% 30.00 in 10.0 mi SSE 10.4 mph - N/A   Overcast
4:58 AM 58.3 °F 56.8 °F 95% 30.02 in 10.0 mi South 12.7 mph - N/A   Overcast
5:07 AM 59.0 °F 57.2 °F 94% 30.01 in 10.0 mi South 15.0 mph - N/A   Light Drizzle
5:21 AM 59.0 °F 57.2 °F 94% 30.01 in 10.0 mi South 12.7 mph - N/A   Overcast
5:22 AM 57.2 °F 57.2 °F 100% 30.01 in 10.0 mi South 11.5 mph - N/A   Overcast
5:58 AM 58.1 °F 57.6 °F 98% 30.01 in 10.0 mi South 13.8 mph 20.7 mph 0.00 in   Overcast
6:05 AM 59.0 °F 57.2 °F 94% 30.00 in 10.0 mi South 13.8 mph - N/A   Overcast
6:29 AM 59.0 °F 57.2 °F 94% 30.00 in 10.0 mi South 12.7 mph - N/A   Overcast
6:46 AM 59.0 °F 59.0 °F 100% 30.00 in 10.0 mi South 15.0 mph - N/A Rain Light Rain
6:58 AM 58.5 °F 58.5 °F 100% 30.01 in 10.0 mi South 11.5 mph - 0.00 in   Light Drizzle
7:11 AM 59.0 °F 59.0 °F 100% 29.99 in 9.0 mi South 12.7 mph - N/A   Overcast
7:28 AM 59.0 °F 59.0 °F 100% 30.00 in 10.0 mi SSE 10.4 mph - N/A   Light Drizzle
7:44 AM 59.0 °F 59.0 °F 100% 30.00 in 9.0 mi SSE 10.4 mph - N/A   Overcast
7:54 AM 59.0 °F 59.0 °F 100% 30.00 in 10.0 mi SSE 11.5 mph - N/A Rain Light Rain
7:58 AM 58.8 °F 58.8 °F 100% 30.01 in 10.0 mi SSE 10.4 mph - 0.02 in Rain Light Rain
8:09 AM 59.0 °F 59.0 °F 100% 30.01 in 6.0 mi SSE 10.4 mph - N/A Rain Light Rain
8:24 AM 59.0 °F 59.0 °F 100% 30.01 in 6.0 mi South 11.5 mph - N/A   Overcast
8:57 AM 59.0 °F 59.0 °F 100% 30.01 in 7.0 mi SSE 9.2 mph - N/A   Light Drizzle
8:58 AM 59.0 °F 59.0 °F 100% 30.02 in 7.0 mi SSE 10.4 mph - 0.02 in   Light Drizzle
9:06 AM 59.0 °F 59.0 °F 100% 30.01 in 9.0 mi SSE 11.5 mph - N/A   Overcast
9:14 AM 59.0 °F 59.0 °F 100% 30.01 in 10.0 mi South 12.7 mph - N/A Rain Light Rain
9:17 AM 59.0 °F 59.0 °F 100% 30.01 in 8.0 mi SSE 11.5 mph - N/A Rain Light Rain
9:25 AM 59.0 °F 59.0 °F 100% 30.01 in 8.0 mi SSE 11.5 mph - N/A   Overcast
9:40 AM 59.0 °F 59.0 °F 100% 30.01 in 10.0 mi SSE 12.7 mph - N/A Rain Light Rain
9:43 AM 59.0 °F 59.0 °F 100% 30.01 in 8.0 mi SSE 10.4 mph - N/A   Light Drizzle
9:58 AM 59.2 °F 59.2 °F 100% 30.01 in 3.0 mi SSE 10.4 mph - 0.02 in Rain Light Rain
10:02 AM 59.0 °F 59.0 °F 100% 30.00 in 2.5 mi SSE 9.2 mph - N/A Rain Light Rain
10:05 AM 59.0 °F 59.0 °F 100% 30.00 in 3.0 mi SSE 8.1 mph 17.3 mph N/A Rain Light Rain
10:15 AM 59.0 °F 59.0 °F 100% 30.00 in 10.0 mi SSE 8.1 mph - N/A   Light Drizzle
10:16 AM 59.0 °F 59.0 °F 100% 30.00 in 10.0 mi SSE 8.1 mph - N/A   Overcast
10:32 AM 59.0 °F 59.0 °F 100% 29.99 in 10.0 mi SSE 10.4 mph 18.4 mph N/A   Overcast
10:36 AM 59.0 °F 59.0 °F 100% 29.99 in 10.0 mi SSE 12.7 mph - N/A   Overcast
10:55 AM 59.0 °F 59.0 °F 100% 29.99 in 9.0 mi SSE 9.2 mph - N/A Rain Light Rain
10:58 AM 59.5 °F 59.5 °F 100% 30.00 in 8.0 mi SSE 10.4 mph - 0.02 in Rain Light Rain
11:00 AM 59.0 °F 59.0 °F 100% 29.99 in 6.0 mi SSE 11.5 mph - N/A Rain Light Rain
11:21 AM 59.0 °F 59.0 °F 100% 29.98 in 7.0 mi SSE 8.1 mph - N/A   Light Drizzle
11:46 AM 60.8 °F 60.8 °F 100% 29.97 in 2.5 mi SSE 10.4 mph 18.4 mph N/A Rain Rain
11:47 AM 60.8 °F 60.8 °F 100% 29.97 in 2.0 mi SSE 10.4 mph 18.4 mph N/A Rain Rain
11:51 AM 60.8 °F 60.8 °F 100% 29.97 in 2.5 mi South 12.7 mph - N/A Rain Light Rain
11:53 AM 60.8 °F 60.8 °F 100% 29.97 in 3.0 mi SSE 13.8 mph - N/A Rain Light Rain
11:58 AM 60.1 °F 60.1 °F 100% 29.98 in 6.0 mi South 11.5 mph - 0.11 in Rain Rain
12:07 PM 60.8 °F 60.8 °F 100% 29.97 in 5.0 mi SSE 11.5 mph - N/A Rain Light Rain
12:16 PM 60.8 °F 60.8 °F 100% 29.97 in 6.0 mi South 13.8 mph - N/A   Light Drizzle
12:18 PM 60.8 °F 60.8 °F 100% 29.96 in 6.0 mi South 12.7 mph - N/A   Light Drizzle
12:19 PM 60.8 °F 60.8 °F 100% 29.96 in 6.0 mi South 13.8 mph - N/A   Overcast
12:58 PM 60.6 °F 60.6 °F 100% 29.95 in 8.0 mi South 12.7 mph - 0.04 in   Overcast
1:16 PM 60.8 °F 60.8 °F 100% 29.93 in 5.0 mi South 13.8 mph - N/A Rain Light Rain
1:27 PM 60.8 °F 60.8 °F 100% 29.92 in 7.0 mi South 13.8 mph - N/A   Overcast
1:42 PM 60.8 °F 60.8 °F 100% 29.92 in 9.0 mi South 17.3 mph 23.0 mph N/A   Overcast
1:58 PM 61.5 °F 61.5 °F 100% 29.92 in 10.0 mi South 13.8 mph - 0.01 in   Overcast
2:32 PM 62.6 °F 62.6 °F 100% 29.91 in 10.0 mi South 15.0 mph 20.7 mph N/A   Overcast
2:34 PM 62.6 °F 62.6 °F 100% 29.91 in 10.0 mi South 15.0 mph - N/A   Overcast
2:47 PM 62.6 °F 62.6 °F 100% 29.91 in 8.0 mi South 15.0 mph - N/A   Overcast
2:58 PM 62.1 °F 62.1 °F 100% 29.91 in 6.0 mi South 15.0 mph 21.9 mph N/A   Overcast
3:31 PM 62.6 °F 62.6 °F 100% 29.90 in 4.0 mi South 15.0 mph 21.9 mph N/A   Overcast
3:44 PM 62.6 °F 62.6 °F 100% 29.90 in 2.0 mi South 15.0 mph - N/A   Overcast
3:52 PM 62.6 °F 62.6 °F 100% 29.90 in 2.0 mi South 13.8 mph - N/A   Overcast
3:58 PM 63.0 °F 63.0 °F 100% 29.91 in 3.0 mi South 13.8 mph - N/A   Overcast
4:15 PM 64.4 °F 64.4 °F 100% 29.90 in 4.0 mi South 15.0 mph - N/A   Overcast
4:38 PM 64.4 °F 64.4 °F 100% 29.90 in 4.0 mi South 13.8 mph - N/A   Overcast
4:58 PM 64.2 °F 64.2 °F 100% 29.91 in 5.0 mi South 15.0 mph - N/A   Overcast
5:02 PM 64.4 °F 64.4 °F 100% 29.89 in 5.0 mi South 13.8 mph - N/A   Overcast
5:06 PM 64.4 °F 64.4 °F 100% 29.90 in 7.0 mi South 13.8 mph - N/A   Overcast
5:45 PM 64.4 °F 64.4 °F 100% 29.90 in 10.0 mi South 13.8 mph - N/A   Overcast
5:58 PM 64.2 °F 63.9 °F 99% 29.90 in 10.0 mi South 12.7 mph - N/A   Overcast
6:58 PM 64.6 °F 64.0 °F 98% 29.90 in 10.0 mi South 16.1 mph - N/A   Overcast
7:58 PM 64.6 °F 63.7 °F 97% 29.91 in 10.0 mi South 18.4 mph 21.9 mph N/A   Overcast
8:38 PM 64.4 °F 62.6 °F 94% 29.90 in 10.0 mi South 20.7 mph 25.3 mph N/A Rain Light Rain
8:46 PM 64.4 °F 64.4 °F 100% 29.91 in 9.0 mi South 19.6 mph 25.3 mph N/A Rain Light Rain
8:50 PM 64.4 °F 64.4 °F 100% 29.91 in 8.0 mi South 20.7 mph 25.3 mph N/A   Overcast
8:55 PM 64.4 °F 64.4 °F 100% 29.91 in 8.0 mi South 21.9 mph 31.1 mph N/A Rain Heavy Rain
8:58 PM 64.4 °F 63.9 °F 98% 29.91 in 7.0 mi South 21.9 mph 31.1 mph 0.05 in Rain Heavy Rain
9:00 PM 64.4 °F 64.4 °F 100% 29.91 in 6.0 mi South 19.6 mph 31.1 mph N/A Rain Heavy Rain
9:03 PM 64.4 °F 64.4 °F 100% 29.90 in 6.0 mi South 17.3 mph 31.1 mph N/A Rain Heavy Rain
9:08 PM 64.4 °F 64.4 °F 100% 29.90 in 8.0 mi South 21.9 mph 27.6 mph N/A   Overcast
9:12 PM 64.4 °F 64.4 °F 100% 29.91 in 10.0 mi South 20.7 mph 27.6 mph N/A Rain Light Rain
9:18 PM 64.4 °F 64.4 °F 100% 29.91 in 10.0 mi South 17.3 mph 27.6 mph N/A   Light Drizzle
9:27 PM 64.4 °F 64.4 °F 100% 29.92 in 10.0 mi SSW 12.7 mph - N/A Rain Light Rain
9:34 PM 64.4 °F 64.4 °F 100% 29.93 in 10.0 mi SW 15.0 mph - N/A Rain Rain
9:39 PM 64.4 °F 64.4 °F 100% 29.93 in 9.0 mi WSW 12.7 mph - N/A Rain Light Rain
9:40 PM 64.4 °F 64.4 °F 100% 29.94 in 9.0 mi WSW 12.7 mph - N/A Rain Light Rain
9:41 PM 64.4 °F 64.4 °F 100% 29.94 in 9.0 mi West 11.5 mph - N/A Rain Light Rain
9:43 PM 64.4 °F 64.4 °F 100% 29.94 in 9.0 mi NW 17.3 mph 24.2 mph N/A   Light Drizzle
9:49 PM 62.6 °F 62.6 °F 100% 29.97 in 9.0 mi WNW 26.5 mph 34.5 mph N/A Rain Light Rain
9:51 PM 60.8 °F 59.0 °F 94% 29.97 in 4.0 mi NW 23.0 mph 34.5 mph N/A Rain Light Rain
9:52 PM 59.0 °F 57.2 °F 94% 29.97 in 2.5 mi WNW 21.9 mph 34.5 mph N/A Rain Light Rain
9:53 PM 57.2 °F 55.4 °F 94% 29.97 in 2.5 mi NW 19.6 mph 34.5 mph N/A Rain Heavy Rain
9:54 PM 57.2 °F 55.4 °F 94% 29.98 in 2.0 mi NW 15.0 mph 34.5 mph N/A Rain Heavy Rain
9:55 PM 55.4 °F 53.6 °F 94% 29.98 in 1.8 mi NW 16.1 mph 34.5 mph N/A Rain Heavy Rain
9:58 PM 55.4 °F 53.6 °F 94% 29.99 in 1.8 mi NW 26.5 mph 34.5 mph 0.17 in Rain Heavy Rain
9:59 PM 53.6 °F 51.8 °F 94% 29.98 in 1.5 mi NW 23.0 mph 32.2 mph N/A Rain Heavy Rain
10:00 PM 53.6 °F 51.8 °F 94% 29.98 in 1.8 mi NW 20.7 mph 32.2 mph N/A Rain Heavy Rain
10:01 PM 53.6 °F 51.8 °F 94% 29.98 in 2.0 mi NW 19.6 mph 32.2 mph N/A Rain Heavy Rain
10:02 PM 53.6 °F 51.8 °F 94% 29.97 in 2.5 mi NW 19.6 mph 32.2 mph N/A Rain Heavy Rain
10:09 PM 51.8 °F 51.8 °F 100% 29.98 in 3.0 mi NW 23.0 mph 27.6 mph N/A Rain Heavy Rain
10:12 PM 51.8 °F 50.0 °F 94% 29.98 in 2.5 mi NNW 21.9 mph 27.6 mph N/A Rain Heavy Rain
10:13 PM 51.8 °F 50.0 °F 94% 29.98 in 2.0 mi NNW 21.9 mph 27.6 mph N/A Rain Heavy Rain
10:19 PM 51.8 °F 50.0 °F 94% 29.98 in 1.8 mi NNW 18.4 mph 26.5 mph N/A Rain Heavy Rain
10:20 PM 51.8 °F 50.0 °F 94% 29.98 in 2.0 mi NNW 19.6 mph 26.5 mph N/A Rain Heavy Rain
10:23 PM 51.8 °F 50.0 °F 94% 29.98 in 2.5 mi NNW 21.9 mph 29.9 mph N/A Rain Heavy Rain
10:24 PM 51.8 °F 50.0 °F 94% 29.98 in 3.0 mi NW 20.7 mph 29.9 mph N/A Rain Heavy Rain
10:29 PM 50.0 °F 50.0 °F 100% 29.98 in 2.5 mi NW 20.7 mph 29.9 mph N/A Rain Heavy Rain
10:34 PM 50.0 °F 50.0 °F 100% 29.98 in 2.5 mi NNW 21.9 mph - N/A Rain Rain
10:38 PM 50.0 °F 50.0 °F 100% 29.98 in 3.0 mi NNW 21.9 mph - N/A Rain Heavy Rain
10:39 PM 50.0 °F 50.0 °F 100% 29.98 in 3.0 mi NNW 20.7 mph 27.6 mph N/A Rain Heavy Rain
10:41 PM 50.0 °F 50.0 °F 100% 29.98 in 4.0 mi NW 18.4 mph 27.6 mph N/A Rain Heavy Rain
10:58 PM 49.6 °F 49.1 °F 98% 30.03 in 3.0 mi NW 20.7 mph 29.9 mph 0.41 in Rain Rain
11:27 PM 48.2 °F 48.2 °F 100% 30.02 in 7.0 mi NW 20.7 mph 28.8 mph N/A Rain Rain
11:58 PM 46.9 °F 46.4 °F 98% 30.04 in 8.0 mi NW 19.6 mph 28.8 mph 0.16 in Rain Light Rain